Regional Weather Roundup
Issued by NWS

Home | Current Version | Previous Version | Text Only | Print | Product List | Glossary On
Versions: 1 2 3 4 5 6 7 8 9 10 11 12 13 14 15 16 17 18 19 20 21 22 23 24 25 26 27 28 29 30 31 32 33 34 35 36 37 38 39 40 41 42 43 44 45 46 47 48 49 50
000
ASUS44 KOUN 240610
RWROK

WEATHER ROUNDUP FOR OKLAHOMA
NATIONAL WEATHER SERVICE NORMAN OK
100 AM CDT MON APR 24 2017

NOTE: "FAIR" INDICATES FEW OR NO CLOUDS BELOW 12,000 FEET WITH NO
      SIGNIFICANT WEATHER AND/OR OBSTRUCTIONS TO VISIBILITY.

OKZ001>007-009>012-014-015-017-240700-
NORTHWEST OKLAHOMA AND THE PANHANDLE

CITY           SKY/WX    TMP DP  RH WIND       PRES   REMARKS
GAGE           CLEAR     55  36  48 S20       29.87F
6HR MIN TEMP:  54; 6HR MAX TEMP:  68;

GUYMON         CLEAR     54  34  46 S21G28    29.80F
ENID/WOODRING  CLEAR     45  41  87 S6        29.93S
$$

OKZ016-021>023-033>039-044-045-240700-
SOUTHWEST OKLAHOMA

CITY           SKY/WX    TMP DP  RH WIND       PRES   REMARKS
LAWTON/REGL    CLEAR     46  44  93 CALM      29.96F
6HR MIN TEMP:  46; 6HR MAX TEMP:  70;

LAWTON/FT SILL CLEAR     51  42  71 S6        29.95S
FREDERICK      CLEAR     53  42  66 SE8       29.92F
CLINTON        CLEAR     53  37  54 S13       29.94F
HOBART         CLEAR     51  40  65 S10       29.95F
ALTUS AFB      CLEAR     50  39  66 S9        29.94F
$$

OKZ018>020-024>031-240700-
CENTRAL OKLAHOMA

CITY           SKY/WX    TMP DP  RH WIND       PRES   REMARKS
OKLAHOMA CITY  PTCLDY    47  39  74 SE6       29.95F
6HR MIN TEMP:  46; 6HR MAX TEMP:  68;

OKC/WILEY POST CLEAR     53  39  59 SE9       29.95F
OKC/TINKER AFB CLEAR     52  38  59 S8        29.95F
STILLWATER     CLEAR     48  39  71 SE7       29.95F
GUTHRIE        CLEAR     52  38  58 SE6       29.95F
$$

OKZ008-013-054>072-240700-
NORTHEAST OKLAHOMA

CITY           SKY/WX    TMP DP  RH WIND       PRES   REMARKS
TULSA          PTCLDY    49  43  80 CALM      29.96F
6HR MIN TEMP:  46; 6HR MAX TEMP:  69;

TULSA/JONES    CLEAR     46  43  89 CALM      29.97F
PONCA CITY     CLEAR     51  38  60 SE9       29.95F
BARTLESVILLE   CLOUDY    41  39  93 CALM      29.98F
MUSKOGEE       CLEAR     45  43  93 CALM      29.99S
$$

OKZ032-040>043-046>053-073>077-240700-
SOUTH CENTRAL/SOUTHEAST OKLAHOMA

CITY           SKY/WX    TMP DP  RH WIND       PRES   REMARKS
ARDMORE/DWNTWN   N/A     45  41  87 CALM      29.99S
MCALESTER      PTCLDY    43  41  93 CALM      29.98F
$$





USA.gov is the U.S. government's official web portal to all federal, state and local government web resources and services.